Regional Weather Roundup
Issued by NWS Nashville, TN

Home | Current Version | Previous Version | Text Only | Print | Product List | Glossary On
Versions: 1 2 3 4 5 6 7 8 9 10 11 12 13 14 15 16 17 18 19 20 21 22 23 24 25 26 27 28
000
ASUS44 KOHX 230310
RWROHX
MIDDLE TENNESSEE HOURLY WEATHER ROUNDUP
NATIONAL WEATHER SERVICE NASHVILLE TN
1000 PM CDT MON MAY 22 2017

NOTE: "FAIR" INDICATES FEW OR NO CLOUDS BELOW 12,000 FEET WITH
NO SIGNIFICANT WEATHER AND/OR OBSTRUCTIONS TO VISIBILITY.

* THESE REPORTS ARE NOT UNDER NWS QUALITY CONTROL AND MAY NOT
  REPORT WEATHER SUCH AS PRECIPITATION AND FOG.


TNZ005>011-023>034-057-059-062>066-078-080-230400
...NORTHERN MIDDLE TENNESSEE...

CITY           SKY/WX    TMP DP  RH WIND       PRES   REMARKS
CLARKSVILLE    CLOUDY    65  53  65 NE5       29.97F
CROSSVILLE     CLOUDY    62  54  74 NE3       30.00S
GALLATIN       CLEAR     64  55  72 N6        30.00S
DICKSON        CLOUDY    63  54  72 NE3       29.96F
LEBANON        CLOUDY    65  55  69 NE3       29.96S
NASHVILLE      CLOUDY    67  55  65 NE7       29.97F
PORTLAND       CLEAR     63  57  82 CALM      29.97S
ROCKWOOD       CLOUDY    61  57  86 CALM      29.98
SMYRNA         CLOUDY    68  55  64 NE5       29.98R
SPARTA         CLOUDY    63  59  88 N6        29.95F
WEST NASHVILLE CLEAR     66  55  68 N6        29.94F
$$
TNZ056-058-060-061-075>077-079-093>097-230400
...SOUTHERN MIDDLE TENNESSEE...

CITY           SKY/WX    TMP DP  RH WIND       PRES   REMARKS
COLUMBIA       PTCLDY    66  55  68 CALM      29.94S
FAYETTEVILLE   MOCLDY    68  63  83 CALM      29.94F
MCMINNVILLE    CLEAR     64  57  77 N3        29.96F
MURFREESBORO   CLOUDY    67  55  65 N5        29.95F
PULASKI        PTCLDY    66  63  88 CALM      29.94S
SHELBYVILLE    PTCLDY    64  57  77 N3        29.95F
TULLAHOMA      CLEAR     66  57  72 N3        29.96F
WINCHESTER     MOCLDY    66  64  94 SE3       29.95F
$$


...KEY TO REMARKS...
VSB - VISIBILITY IN MILES
WCI - WIND CHILL INDEX
HX  - HEAT INDEX





USA.gov is the U.S. government's official web portal to all federal, state and local government web resources and services.